Location: *
(40.7873°S, 98.7174°E)
Time: 10:45:15
(UTC+00:00)

DMSP B5D2-2 - Pass Details

Date: 24 May 2022
Orbit: 789 x 805 km, 98.3° (Epoch: 04 July)

Event Time Altitude Azimuth Distance (km) Brightness Sun altitude
Rises 23:58:39 0° 169° (S) 3,324 7.2 -6.8°
Reaches altitude 10° 00:01:00 10° 170° (S) 2,388 6.4 -6.4°
Maximum altitude 00:06:16 79° 255° (WSW) 819 4.1 -5.5°
Drops below altitude 10° 00:11:30 10° 341° (NNW) 2,361 6.6 -4.6°
Sets 00:13:48 0° 342° (NNW) 3,285 7.4 -4.2°
